This is the latest recevied weather packets stored in our database for station/object KP4CRN. If no packets are shown the sender has not sent any weather packets the latest 10 day(s).
| Time | Temp. | Humidity | Pressure | Rain* | Wind** | Luminosity | Snow |
|---|---|---|---|---|---|---|---|
| 1778065850 | 26.67° C | 87% | 1018.5 hPa | 0 mm | - | 138 W/m² | - |
| 1778065548 | 26.11° C | 88% | 1018.7 hPa | 0 mm | - | 80 W/m² | - |
| 1778065245 | 26.11° C | 88% | 1018.5 hPa | 0 mm | - | 121 W/m² | - |
| 1778064941 | 26.11° C | 88% | 1018.4 hPa | 0 mm | - | 72 W/m² | - |
| 1778064639 | 25.56° C | 89% | 1018.4 hPa | 0 mm | - | 100 W/m² | - |
| 1778064337 | 25° C | 91% | 1018.2 hPa | 0 mm | - | 72 W/m² | - |
| 1778064034 | 25° C | 91% | 1018.2 hPa | 0 mm | - | 54 W/m² | - |
| 1778063731 | 25° C | 92% | 1018.3 hPa | 0 mm | - | 47 W/m² | - |
| 1778063428 | 25° C | 92% | 1018.1 hPa | 0 mm | - | 40 W/m² | - |
| 1778063126 | 25° C | 93% | 1017.9 hPa | 0 mm | - | 34 W/m² | - |
| 1778062823 | 24.44° C | 93% | 1017.9 hPa | 0 mm | - | 26 W/m² | - |
| 1778062520 | 24.44° C | 94% | 1018 hPa | 0 mm | - | 17 W/m² | - |
| 1778062217 | 24.44° C | 94% | 1017.9 hPa | 0 mm | - | 12 W/m² | - |
| 1778061915 | 24.44° C | 94% | 1018 hPa | 0 mm | - | 9 W/m² | - |
| 1778061613 | 24.44° C | 94% | 1018.1 hPa | 0 mm | - | 6 W/m² | - |
| 1778061312 | 24.44° C | 94% | 1017.9 hPa | 0 mm | - | 3 W/m² | - |
| 1778061007 | 24.44° C | 94% | 1018 hPa | 0 mm | - | 2 W/m² | - |
| 1778060706 | 24.44° C | 94% | 1017.9 hPa | 0 mm | - | 1 W/m² | - |
| 1778060403 | 24.44° C | 94% | 1017.8 hPa | 0 mm | - | 0 W/m² | - |
| 1778060101 | 24.44° C | 94% | 1018 hPa | 0 mm | - | 0 W/m² | - |
| 1778059798 | 24.44° C | 94% | 1018 hPa | 0 mm | - | 0 W/m² | - |
| 1778059496 | 24.44° C | 94% | 1017.9 hPa | 0 mm | - | 0 W/m² | - |
| 1778059192 | 24.44° C | 94% | 1017.7 hPa | 0 mm | - | 0 W/m² | - |
| 1778058891 | 24.44° C | 94% | 1017.7 hPa | 0 mm | - | 0 W/m² | - |
| 1778058588 | 24.44° C | 93% | 1018 hPa | 0 mm | - | 0 W/m² | - |
* Rain latest hour (hover to see other rain measurements)
** Current wind speed in m/s (hover to see current wind gust speed)